Change the Weather History Date:

Tuesday, October 22, 2013

  Actual Average Record
Temperature  
Mean Temperature 43 °F 51 °F  
Max Temperature 48 °F 62 °F 89 °F (1975)
Min Temperature 37 °F 40 °F 20 °F (1976)
Degree Days  
Heating Degree Days 22 14  
Month to date heating degree days 211 235  
Since 1 July heating degree days 233 338  
Cooling Degree Days 0 0  
Month to date cooling degree days 21 12  
Year to date cooling degree days 1294 1109  
Moisture  
Dew Point 36 °F    
Average Humidity 80    
Maximum Humidity 92    
Minimum Humidity 67    
Precipitation  
Precipitation T in 0.07 in 1.65 in (1977)
Month to date precipitation 3.47 1.59  
Year to date precipitation 27.43 27.38  
Snow  
Snow 0.00 in 0.00 in - ()
Month to date snowfall 0.0 0.1  
Since 1 July snowfall 0.0 0.1  
Snow Depth 0.00 in    
Sea Level Pressure  
Sea Level Pressure 30.00 in    
Wind  
Wind Speed 9 mph (NNW)    
Max Wind Speed 21 mph    
Max Gust Speed 26 mph    
Visibility 10 miles    
Events Rain    
T = Trace of Precipitation, MM = Missing Value Source: NWS Daily Summary

Daily Weather History Graph

Daily Weather History Graph

Search for Another Location

Airport or City:

Trip Planner

Search our weather history database for the weather conditions in past years. The results will help you decide how hot, cold, wet, or windy it might be!

Date:

Astronomy

Oct. 22, 2013 Rise Set
Actual Time 7:43 AM CDT 6:31 PM CDT
Civil Twilight 7:15 AM CDT 6:59 PM CDT
Nautical Twilight 6:43 AM CDT 7:32 PM CDT
Astronomical Twilight 6:11 AM CDT 8:04 PM CDT
Moon 9:11 PM CDT (10/22) 11:14 AM CDT (10/22)
Length of Visible Light 11h 44m
Length of Day
10h 48m
Waning Gibbous, 86% of the Moon is Illuminated
Oct 22
Waning Gibbous
Oct 26
Last Quarter
Nov 3
New
Nov 9
First Quarter
Nov 17
Full

Hourly Weather History & Observations

Time (CDT) Temp. Windchill Dew Point Humidity Pressure Visibility Wind Dir Wind Speed Gust Speed Precip Events Conditions
12:52 AM 45.0 °F - 37.0 °F 74% 29.93 in 10.0 mi Calm Calm - N/A   Overcast
1:52 AM 44.1 °F - 37.0 °F 76% 29.91 in 10.0 mi Calm Calm - N/A   Overcast
2:52 AM 42.1 °F 39.2 °F 37.9 °F 85% 29.90 in 10.0 mi North 4.6 mph - N/A   Overcast
3:52 AM 43.0 °F 40.3 °F 37.9 °F 82% 29.90 in 10.0 mi North 4.6 mph - 0.00 in Rain Light Rain
4:52 AM 42.1 °F - 37.9 °F 85% 29.88 in 10.0 mi Calm Calm - 0.00 in   Overcast
5:52 AM 41.0 °F 38.0 °F 37.0 °F 86% 29.88 in 10.0 mi WNW 4.6 mph - N/A   Mostly Cloudy
6:52 AM 39.9 °F - 36.0 °F 86% 29.89 in 10.0 mi Calm Calm - N/A   Partly Cloudy
7:40 AM 37.4 °F 33.8 °F 35.6 °F 93% 29.88 in 10.0 mi NNW 4.6 mph - N/A   Mostly Cloudy
7:52 AM 39.9 °F 35.1 °F 37.0 °F 89% 29.90 in 10.0 mi North 6.9 mph - N/A   Overcast
8:50 AM 42.8 °F 38.0 °F 37.4 °F 81% 29.91 in 10.0 mi North 8.1 mph - N/A   Mostly Cloudy
8:52 AM 42.1 °F 37.7 °F 37.9 °F 85% 29.93 in 10.0 mi NNW 6.9 mph - N/A   Mostly Cloudy
9:52 AM 45.0 °F 39.7 °F 39.0 °F 80% 29.96 in 10.0 mi NNW 10.4 mph - N/A   Overcast
10:41 AM 46.4 °F 41.5 °F 41.0 °F 81% 29.97 in 10.0 mi NNW 10.4 mph - N/A   Overcast
10:52 AM 46.0 °F 39.9 °F 41.0 °F 83% 29.98 in 10.0 mi NNW 13.8 mph - N/A   Overcast
11:52 AM 46.9 °F - 39.0 °F 74% 29.99 in 9.0 mi North 18.4 mph 21.9 mph 0.00 in   Overcast
12:52 PM 45.0 °F 38.2 °F 37.0 °F 74% 30.02 in 10.0 mi NNW 15.0 mph 25.3 mph 0.00 in   Overcast
1:52 PM 44.1 °F 36.8 °F 36.0 °F 73% 30.04 in 10.0 mi NNW 16.1 mph - N/A   Overcast
2:52 PM 44.1 °F 37.4 °F 35.1 °F 71% 30.04 in 10.0 mi North 13.8 mph 20.7 mph N/A   Overcast
3:52 PM 44.1 °F 37.7 °F 35.1 °F 71% 30.06 in 10.0 mi NNW 12.7 mph - N/A   Mostly Cloudy
4:52 PM 43.0 °F 35.7 °F 34.0 °F 71% 30.09 in 10.0 mi NNW 15.0 mph - N/A   Overcast
5:52 PM 43.0 °F 36.8 °F 33.1 °F 68% 30.10 in 10.0 mi North 11.5 mph - N/A   Overcast
6:52 PM 42.1 °F 36.1 °F 33.1 °F 70% 30.12 in 10.0 mi NNW 10.4 mph - N/A   Overcast
7:22 PM 41.0 °F 33.9 °F 33.8 °F 76% 30.11 in 10.0 mi NNW 12.7 mph - N/A   Overcast
7:52 PM 42.1 °F 35.7 °F 32.0 °F 67% 30.14 in 10.0 mi NNW 11.5 mph - N/A   Overcast
8:52 PM 41.0 °F 36.4 °F 33.1 °F 73% 30.14 in 10.0 mi NNW 6.9 mph - N/A   Overcast
9:52 PM 41.0 °F 38.0 °F 33.1 °F 73% 30.14 in 10.0 mi North 4.6 mph - N/A   Overcast
10:52 PM 39.9 °F 35.8 °F 33.1 °F 77% 30.14 in 10.0 mi NNW 5.8 mph - N/A   Overcast
11:52 PM 39.9 °F 35.8 °F 33.1 °F 77% 30.14 in 10.0 mi NNW 5.8 mph - N/A   Overcast